TimeCDT,TemperatureF,Dew PointF,Humidity,Sea Level PressureIn,VisibilityMPH,Wind Direction,Wind SpeedMPH,Gust SpeedMPH,PrecipitationIn,Events,Conditions,WindDirDegrees,DateUTC
12:53 AM,33.1,27.0,78,29.89,10.0,West,6.9,-,N/A,,Clear,270,2012-10-10 05:53:00
1:53 AM,32.0,26.1,79,29.91,10.0,West,8.1,-,N/A,,Clear,270,2012-10-10 06:53:00
2:53 AM,30.0,26.1,85,29.92,10.0,West,8.1,-,N/A,,Clear,260,2012-10-10 07:53:00
3:53 AM,28.9,26.1,89,29.93,10.0,WSW,6.9,-,N/A,,Clear,240,2012-10-10 08:53:00
4:53 AM,28.9,26.1,89,29.94,10.0,WSW,6.9,-,N/A,,Clear,240,2012-10-10 09:53:00
5:53 AM,28.9,26.1,89,29.96,10.0,WSW,6.9,-,N/A,,Clear,250,2012-10-10 10:53:00
6:53 AM,28.0,24.1,85,29.98,10.0,WSW,5.8,-,N/A,,Clear,250,2012-10-10 11:53:00
7:53 AM,28.9,26.1,89,30.00,10.0,WSW,5.8,-,N/A,,Clear,240,2012-10-10 12:53:00
8:53 AM,35.1,28.9,78,30.01,10.0,West,5.8,-,N/A,,Partly Cloudy,270,2012-10-10 13:53:00
9:53 AM,37.9,26.1,62,30.03,10.0,West,12.7,20.7,N/A,,Scattered Clouds,270,2012-10-10 14:53:00
10:53 AM,43.0,21.0,42,30.03,10.0,WNW,10.4,20.7,N/A,,Partly Cloudy,300,2012-10-10 15:53:00
11:53 AM,44.1,21.0,40,30.04,10.0,NW,13.8,20.7,N/A,,Overcast,320,2012-10-10 16:53:00
12:53 PM,43.0,21.0,42,30.04,10.0,West,12.7,20.7,N/A,,Overcast,280,2012-10-10 17:53:00
1:53 PM,46.0,19.9,35,30.02,10.0,West,15.0,21.9,N/A,,Overcast,280,2012-10-10 18:53:00
2:53 PM,45.0,21.9,40,30.01,10.0,West,12.7,18.4,N/A,,Overcast,280,2012-10-10 19:53:00
3:53 PM,46.9,21.9,37,30.01,10.0,WNW,12.7,19.6,N/A,,Mostly Cloudy,290,2012-10-10 20:53:00
4:53 PM,46.0,21.9,39,30.00,10.0,West,8.1,-,N/A,,Mostly Cloudy,270,2012-10-10 21:53:00
5:53 PM,44.1,21.9,42,30.00,10.0,WSW,4.6,-,N/A,,Scattered Clouds,250,2012-10-10 22:53:00
6:53 PM,39.9,23.0,51,30.00,10.0,SSW,3.5,-,N/A,,Clear,200,2012-10-10 23:53:00
7:53 PM,41.0,24.1,51,30.00,10.0,South,3.5,-,N/A,,Overcast,190,2012-10-11 00:53:00
8:53 PM,43.0,24.1,47,29.99,10.0,SSW,5.8,-,N/A,,Overcast,200,2012-10-11 01:53:00
9:53 PM,44.1,26.1,49,29.98,10.0,WSW,4.6,-,N/A,,Overcast,250,2012-10-11 02:53:00
10:53 PM,42.1,30.9,65,29.98,10.0,West,13.8,19.6,N/A,,Overcast,260,2012-10-11 03:53:00
11:41 PM,37.4,33.8,87,29.96,8.0,WSW,9.2,-,0.00,Rain,Light Rain,250,2012-10-11 04:41:00
11:53 PM,37.9,34.0,86,29.99,6.0,WSW,9.2,-,0.00,Rain,Light Rain,250,2012-10-11 04:53:00